N390TC KMCO-KMCO

Flight info

Callsign N390TC
Flight time 0h 15m
Altitude VFR015
Route
Aircraft PA28/L-VGD/C

Departure

Time 2026-04-26 14:10
Airport Orlando International Airport (KMCO)

Arrival

Time 2026-04-26 14:25
Airport Orlando International Airport (KMCO)
Time Latitude Longitude Altitude Speed Heading
2026-04-26 14:02 28.43190 -81.33009 103 ft 0 kts 88°
2026-04-26 14:04 28.43190 -81.32995 103 ft 5 kts 85°
2026-04-26 14:04 28.43201 -81.32952 104 ft 6 kts 59°
2026-04-26 14:04 28.43241 -81.32926 103 ft 8 kts 359°
2026-04-26 14:04 28.43300 -81.32929 102 ft 9 kts 359°
2026-04-26 14:05 28.43367 -81.32928 102 ft 10 kts
2026-04-26 14:05 28.43433 -81.32927 102 ft 9 kts
2026-04-26 14:05 28.43495 -81.32929 102 ft 9 kts 356°
2026-04-26 14:05 28.43568 -81.32931 101 ft 13 kts
2026-04-26 14:06 28.43687 -81.32934 97 ft 20 kts 359°
2026-04-26 14:06 28.43838 -81.32934 95 ft 23 kts
2026-04-26 14:06 28.43980 -81.32919 96 ft 19 kts 23°
2026-04-26 14:06 28.44100 -81.32862 95 ft 19 kts
2026-04-26 14:07 28.44229 -81.32864 95 ft 18 kts
2026-04-26 14:07 28.44342 -81.32864 99 ft 14 kts 359°
2026-04-26 14:07 28.44431 -81.32865 102 ft 12 kts 360°
2026-04-26 14:07 28.44510 -81.32867 102 ft 11 kts
2026-04-26 14:08 28.44596 -81.32866 102 ft 14 kts 359°
2026-04-26 14:08 28.44703 -81.32868 103 ft 16 kts 359°
2026-04-26 14:08 28.44797 -81.32857 105 ft 13 kts 35°
2026-04-26 14:08 28.44814 -81.32758 104 ft 16 kts 97°
2026-04-26 14:09 28.44658 -81.32708 104 ft 41 kts 178°
2026-04-26 14:09 28.44251 -81.32687 125 ft 69 kts 182°
2026-04-26 14:09 28.43743 -81.32636 198 ft 77 kts 183°
2026-04-26 14:09 28.43188 -81.32643 340 ft 80 kts 189°
2026-04-26 14:10 28.42611 -81.32667 522 ft 85 kts 185°
2026-04-26 14:10 28.42137 -81.32934 743 ft 77 kts 244°
2026-04-26 14:10 28.42081 -81.33554 858 ft 82 kts 265°
2026-04-26 14:10 28.42166 -81.34209 1032 ft 89 kts 304°
2026-04-26 14:11 28.43469 -81.34498 1247 ft 100 kts 352°
2026-04-26 14:11 28.44165 -81.34610 1252 ft 101 kts 342°
2026-04-26 14:11 28.44832 -81.34849 1288 ft 100 kts 338°
2026-04-26 14:12 28.45515 -81.35026 1378 ft 99 kts 342°
2026-04-26 14:12 28.46187 -81.35192 1383 ft 99 kts 341°
2026-04-26 14:12 28.46860 -81.35412 1338 ft 102 kts 338°
2026-04-26 14:12 28.47518 -81.35653 1329 ft 98 kts 337°
2026-04-26 14:13 28.48777 -81.35462 1173 ft 107 kts 55°
2026-04-26 14:13 28.48957 -81.34654 1077 ft 104 kts 88°
2026-04-26 14:13 28.49021 -81.33870 982 ft 100 kts 88°
2026-04-26 14:14 28.48995 -81.33104 934 ft 93 kts 120°
2026-04-26 14:14 28.48548 -81.32694 882 ft 83 kts 178°
2026-04-26 14:14 28.48003 -81.32725 820 ft 76 kts 187°
2026-04-26 14:14 28.47496 -81.32725 743 ft 73 kts 182°
2026-04-26 14:15 28.46996 -81.32695 644 ft 71 kts 184°
2026-04-26 14:15 28.46517 -81.32707 586 ft 67 kts 184°
2026-04-26 14:15 28.46052 -81.32717 427 ft 67 kts 189°
2026-04-26 14:15 28.45581 -81.32709 314 ft 66 kts 183°
2026-04-26 14:16 28.45125 -81.32701 236 ft 65 kts 185°
2026-04-26 14:16 28.44681 -81.32697 136 ft 62 kts 184°
2026-04-26 14:16 28.44324 -81.32697 98 ft 50 kts 180°
2026-04-26 14:16 28.43844 -81.32684 167 ft 80 kts 184°
2026-04-26 14:17 28.43257 -81.32669 352 ft 87 kts 184°
2026-04-26 14:17 28.42655 -81.32642 556 ft 87 kts 182°
2026-04-26 14:17 28.42277 -81.32749 649 ft 85 kts 222°
2026-04-26 14:17 28.42151 -81.33363 854 ft 83 kts 270°
2026-04-26 14:18 28.42226 -81.34008 933 ft 91 kts 292°
2026-04-26 14:18 28.42833 -81.34258 1038 ft 100 kts
2026-04-26 14:18 28.43498 -81.34174 1059 ft 96 kts 359°
2026-04-26 14:18 28.44173 -81.34128 1089 ft 99 kts 354°
2026-04-26 14:19 28.44851 -81.34131 1134 ft 92 kts 353°
2026-04-26 14:19 28.45474 -81.34159 1096 ft 86 kts 350°
2026-04-26 14:19 28.46074 -81.34152 1023 ft 90 kts 13°
2026-04-26 14:19 28.46496 -81.33621 936 ft 98 kts 71°
2026-04-26 14:20 28.46526 -81.32874 801 ft 89 kts 115°
2026-04-26 14:20 28.46058 -81.32623 582 ft 77 kts 190°
2026-04-26 14:20 28.45525 -81.32690 373 ft 76 kts 188°
2026-04-26 14:20 28.45018 -81.32697 230 ft 69 kts 184°
2026-04-26 14:21 28.44567 -81.32695 103 ft 55 kts 183°
2026-04-26 14:21 28.44180 -81.32705 105 ft 71 kts 184°
2026-04-26 14:21 28.43646 -81.32649 280 ft 81 kts 179°
2026-04-26 14:21 28.43068 -81.32618 497 ft 84 kts 186°
2026-04-26 14:22 28.42536 -81.32831 626 ft 90 kts 238°
2026-04-26 14:22 28.42520 -81.33533 824 ft 87 kts 275°
2026-04-26 14:22 28.42714 -81.34169 1000 ft 92 kts 308°
2026-04-26 14:22 28.43329 -81.34378 1038 ft 97 kts 354°
2026-04-26 14:23 28.44004 -81.34416 1062 ft 97 kts 350°
2026-04-26 14:23 28.44649 -81.34486 1073 ft 89 kts 346°
2026-04-26 14:23 28.45262 -81.34594 1081 ft 88 kts 342°
2026-04-26 14:23 28.45848 -81.34647 1006 ft 86 kts 17°
2026-04-26 14:24 28.46195 -81.34095 917 ft 88 kts 78°
2026-04-26 14:24 28.46108 -81.33417 745 ft 89 kts 119°
2026-04-26 14:24 28.45715 -81.32906 554 ft 83 kts 147°
2026-04-26 14:24 28.45183 -81.32690 327 ft 79 kts 179°
2026-04-26 14:25 28.44671 -81.32698 176 ft 69 kts 182°
2026-04-26 14:25 28.44253 -81.32695 99 ft 49 kts 180°
2026-04-26 14:25 28.43832 -81.32680 144 ft 74 kts 180°
2026-04-26 14:25 28.43265 -81.32668 269 ft 88 kts 189°
2026-04-26 14:26 28.42651 -81.32686 488 ft 87 kts 184°
2026-04-26 14:26 28.42063 -81.32781 670 ft 86 kts 217°
2026-04-26 14:26 28.41901 -81.33369 848 ft 84 kts 274°
2026-04-26 14:26 28.41976 -81.34081 959 ft 95 kts 287°
2026-04-26 14:27 28.42474 -81.34505 1108 ft 97 kts 344°
2026-04-26 14:27 28.43151 -81.34568 1154 ft 97 kts 349°
2026-04-26 14:27 28.43821 -81.34655 1180 ft 100 kts 347°
2026-04-26 14:27 28.44484 -81.34740 1183 ft 94 kts 345°
2026-04-26 14:28 28.45142 -81.34802 1118 ft 93 kts 351°
2026-04-26 14:28 28.45766 -81.34863 1071 ft 88 kts 349°
2026-04-26 14:28 28.46330 -81.34627 1037 ft 91 kts 49°
2026-04-26 14:28 28.46482 -81.33929 974 ft 93 kts 89°
2026-04-26 14:29 28.46472 -81.33225 836 ft 85 kts 122°
2026-04-26 14:29 28.46024 -81.32818 587 ft 85 kts 164°
2026-04-26 14:29 28.45471 -81.32695 343 ft 79 kts 185°
2026-04-26 14:29 28.44944 -81.32699 197 ft 72 kts 184°
2026-04-26 14:30 28.44488 -81.32710 101 ft 53 kts 182°
2026-04-26 14:30 28.44044 -81.32700 122 ft 80 kts 180°
2026-04-26 14:30 28.43451 -81.32673 316 ft 86 kts 182°
2026-04-26 14:30 28.42868 -81.32676 586 ft 82 kts 185°
2026-04-26 14:31 28.42452 -81.33021 720 ft 82 kts 260°
2026-04-26 14:31 28.42534 -81.33689 920 ft 85 kts 275°
2026-04-26 14:31 28.42903 -81.34131 1107 ft 92 kts 346°
2026-04-26 14:31 28.43563 -81.34158 1086 ft 96 kts 351°
2026-04-26 14:32 28.44235 -81.34240 1144 ft 97 kts 345°
2026-04-26 14:32 28.44896 -81.34294 1199 ft 92 kts 348°
2026-04-26 14:32 28.45524 -81.34340 1172 ft 89 kts 351°
2026-04-26 14:32 28.46154 -81.34432 1072 ft 92 kts 343°
2026-04-26 14:33 28.46762 -81.34318 1002 ft 92 kts 35°
2026-04-26 14:33 28.46990 -81.33664 813 ft 90 kts 94°
2026-04-26 14:33 28.46828 -81.32977 663 ft 89 kts 133°
2026-04-26 14:33 28.46311 -81.32706 511 ft 81 kts 180°
2026-04-26 14:34 28.45795 -81.32703 371 ft 67 kts 184°
2026-04-26 14:34 28.45335 -81.32700 277 ft 65 kts 185°
2026-04-26 14:34 28.44885 -81.32696 185 ft 63 kts 184°
2026-04-26 14:34 28.44512 -81.32694 102 ft 44 kts 181°
2026-04-26 14:35 28.44252 -81.32696 99 ft 33 kts 180°
2026-04-26 14:35 28.44032 -81.32695 95 ft 31 kts 180°
2026-04-26 14:35 28.43817 -81.32698 98 ft 30 kts 180°
2026-04-26 14:35 28.43669 -81.32737 99 ft 14 kts 254°
2026-04-26 14:36 28.43669 -81.32840 98 ft 13 kts 270°
2026-04-26 14:36 28.43643 -81.32922 99 ft 10 kts 208°
2026-04-26 14:36 28.43586 -81.32926 101 ft 7 kts 178°
2026-04-26 14:36 28.43545 -81.32928 102 ft 5 kts 186°
2026-04-26 14:37 28.43516 -81.32932 102 ft 4 kts 184°
2026-04-26 14:37 28.43484 -81.32933 102 ft 8 kts 176°
2026-04-26 14:37 28.43411 -81.32934 102 ft 13 kts 186°
2026-04-26 14:37 28.43309 -81.32929 102 ft 17 kts 171°
2026-04-26 14:38 28.43208 -81.32928 104 ft 13 kts 170°
2026-04-26 14:38 28.43194 -81.32925 104 ft 0 kts 170°
2026-04-26 14:40 28.43185 -81.32936 104 ft 4 kts 274°
2026-04-26 14:40 28.43182 -81.32971 104 ft 5 kts 261°
2026-04-26 14:40 28.43200 -81.33005 103 ft 6 kts 351°
2026-04-26 14:41 28.43212 -81.33006 103 ft 0 kts 354°